Total_Precipitation_Accumulation
0.03 0.11 0.26 0.36 0.63 1.23 1.24 0.91 0.52 0.34 0.34 0.41 0.43 0.42 0.53 0.63 0.79 1.38 1.16 0.92 0.61 0.58 0.76 0.81 0.77 0.66 0.62 0.63 0.66 0.64 0.60 0.58 0.67 0.69 0.69 0.70 0.69 0.64 0.67 0.77 0.87 0.96 1.02 1.04 1.10 1.08 1.00 0.76 0.62
0.04 0.12 0.26 0.35 0.87 1.47 1.20 0.85 0.46 0.34 0.27 0.40 0.51 0.44 0.59 0.57 0.40 0.62 0.88 0.78 0.50 0.45 0.57 0.57 0.60 0.56 0.48 0.45 0.50 0.60 0.61 0.62 0.70 0.79 0.88 0.89 0.92 0.89 0.86 0.88 0.92 1.02 1.04 1.03 1.05 0.99 0.84 0.63 0.53
0.04 0.11 0.23 0.36 0.88 1.07 0.83 0.59 0.33 0.29 0.21 0.27 0.42 0.37 0.51 0.70 0.51 0.62 0.74 0.62 0.45 0.41 0.47 0.52 0.47 0.42 0.41 0.38 0.42 0.54 0.64 0.69 0.71 0.80 0.90 0.99 1.13 1.10 1.09 1.09 1.17 1.16 1.06 0.94 0.90 0.88 0.69 0.53 0.50
0.03 0.08 0.17 0.31 0.57 0.60 0.45 0.40 0.29 0.28 0.25 0.23 0.34 0.46 0.66 0.60 0.53 0.64 0.63 0.57 0.40 0.35 0.36 0.37 0.42 0.43 0.43 0.41 0.44 0.50 0.60 0.67 0.71 0.75 0.88 0.96 1.15 1.29 1.29 1.24 1.26 1.17 0.95 0.85 0.80 0.76 0.61 0.55 0.53
0.02 0.07 0.18 0.26 0.34 0.41 0.38 0.33 0.27 0.28 0.26 0.30 0.40 0.71 1.02 0.80 0.58 0.60 0.61 0.56 0.45 0.36 0.35 0.32 0.37 0.39 0.42 0.42 0.45 0.49 0.52 0.62 0.62 0.59 0.69 0.84 1.03 1.29 1.29 1.23 1.16 1.00 0.88 0.83 0.79 0.70 0.60 0.60 0.58
0.02 0.05 0.15 0.17 0.23 0.29 0.30 0.25 0.26 0.23 0.26 0.39 0.56 0.82 1.00 0.90 0.80 0.82 0.84 0.72 0.69 0.51 0.39 0.39 0.43 0.40 0.39 0.38 0.42 0.44 0.47 0.52 0.57 0.55 0.60 0.77 0.93 1.05 1.09 1.06 0.98 0.89 0.88 0.86 0.79 0.67 0.59 0.57 0.54
0.01 0.04 0.07 0.10 0.15 0.20 0.23 0.20 0.22 0.23 0.32 0.49 0.66 0.97 1.06 1.14 1.05 0.96 1.13 1.21 1.01 0.74 0.55 0.49 0.43 0.36 0.37 0.40 0.41 0.43 0.45 0.53 0.59 0.58 0.66 0.83 0.86 0.89 0.89 0.94 0.92 0.91 0.90 0.91 0.75 0.59 0.53 0.51 0.49
0.01 0.04 0.06 0.06 0.09 0.16 0.15 0.16 0.17 0.22 0.36 0.46 0.61 1.00 1.23 1.10 1.13 1.17 1.36 1.49 1.41 1.02 0.80 0.63 0.58 0.56 0.48 0.41 0.46 0.49 0.49 0.56 0.63 0.66 0.75 0.90 0.88 0.89 0.95 0.92 0.93 0.94 0.98 0.95 0.79 0.61 0.51 0.50 0.50
0.01 0.03 0.05 0.05 0.06 0.11 0.09 0.14 0.19 0.17 0.23 0.40 0.57 0.85 0.92 0.86 0.98 1.12 1.35 1.52 1.69 1.46 1.08 0.86 0.76 0.73 0.70 0.57 0.54 0.63 0.65 0.71 0.77 0.88 0.95 1.11 1.18 1.12 1.24 1.13 1.18 1.12 1.13 1.05 0.94 0.81 0.69 0.62 0.60
0.01 0.02 0.03 0.03 0.04 0.05 0.07 0.12 0.18 0.16 0.35 0.61 0.73 0.82 0.73 0.85 0.95 1.15 1.30 1.37 1.54 1.63 1.21 1.07 0.89 0.78 0.78 0.87 1.08 1.12 0.92 0.99 1.16 1.35 1.46 1.70 1.70 1.65 1.39 1.46 1.57 1.64 1.71 1.57 1.47 1.39 1.09 0.92 0.86
0.01 0.01 0.02 0.02 0.02 0.03 0.07 0.08 0.13 0.18 0.50 0.96 1.11 1.11 1.00 0.96 1.09 1.33 1.55 1.58 1.47 1.54 1.31 1.21 1.17 1.13 1.00 1.14 1.30 1.37 1.31 1.38 1.43 1.53 1.66 1.80 1.57 1.50 1.53 1.63 1.85 1.95 1.99 1.88 2.00 2.01 1.68 1.61 1.62
0.00 0.01 0.01 0.01 0.01 0.03 0.06 0.07 0.12 0.21 0.50 0.79 1.07 1.04 1.16 1.12 1.20 1.44 1.74 1.90 1.89 1.99 1.71 1.54 1.57 1.45 1.33 1.32 1.44 1.47 1.48 1.43 1.47 1.65 1.62 1.76 1.87 1.86 1.90 2.04 2.03 2.08 2.20 2.53 2.28 2.43 2.31 2.12 2.00
0.00 0.00 0.01 0.01 0.01 0.03 0.05 0.12 0.15 0.24 0.37 0.57 0.82 0.82 0.87 1.17 1.53 1.90 2.24 2.23 2.37 2.53 2.44 2.15 1.90 1.70 1.66 1.78 1.77 1.66 1.69 1.65 1.75 1.92 1.89 1.93 2.14 2.21 2.25 2.22 2.24 2.03 2.19 2.54 2.64 2.50 2.70 2.77 2.57
0.00 0.00 0.01 0.02 0.02 0.04 0.07 0.18 0.26 0.35 0.44 0.50 0.77 1.00 1.04 1.38 1.71 2.25 2.88 2.77 2.55 2.73 2.81 2.61 2.38 2.21 2.18 2.30 2.36 2.21 2.00 2.11 2.18 2.18 2.06 2.11 2.34 2.59 2.68 2.52 2.48 2.30 2.29 2.52 2.65 2.65 3.18 3.12 2.96
0.00 0.01 0.02 0.05 0.06 0.09 0.15 0.33 0.48 0.50 0.48 0.56 0.86 1.17 1.40 1.56 1.88 2.21 2.57 2.88 3.02 3.11 3.03 2.97 2.90 2.79 2.81 2.76 2.70 2.50 2.40 2.25 2.28 2.38 2.42 2.38 2.40 2.66 2.77 2.76 2.63 2.52 2.45 2.64 2.70 2.89 3.16 2.91 2.78
0.01 0.02 0.06 0.09 0.10 0.12 0.20 0.56 0.58 0.48 0.50 0.82 1.02 1.35 1.62 1.71 1.98 2.37 2.70 3.20 3.44 3.47 3.45 3.41 3.24 3.25 3.25 3.18 3.06 2.89 2.73 2.47 2.29 2.32 2.47 2.48 2.51 2.66 2.81 2.63 2.50 2.70 2.77 2.89 3.09 3.17 3.19 3.06 2.96
0.03 0.04 0.08 0.11 0.12 0.12 0.19 0.43 0.56 0.51 0.71 1.00 1.24 1.55 1.83 2.09 2.53 2.99 3.22 3.35 3.68 3.98 4.10 4.08 4.01 3.80 3.55 3.45 3.44 3.46 3.37 3.04 2.70 2.62 2.62 2.61 2.46 2.51 2.72 2.61 2.68 2.82 2.92 2.98 2.74 3.17 3.18 3.18 3.07
0.04 0.06 0.12 0.15 0.14 0.15 0.24 0.39 0.50 0.58 0.81 1.21 1.58 1.85 2.10 2.48 2.97 3.30 3.56 3.90 4.04 4.28 4.70 4.62 4.44 4.35 4.26 4.15 3.88 3.86 3.61 3.29 3.12 3.02 3.05 2.83 2.66 2.64 2.85 2.72 2.78 2.89 3.04 3.07 3.05 3.26 3.22 3.04 3.01
0.05 0.08 0.13 0.17 0.15 0.18 0.34 0.53 0.57 0.75 1.04 1.34 1.67 1.92 2.24 2.53 2.94 3.37 3.46 3.67 3.97 4.55 4.92 5.01 5.10 4.96 4.68 4.27 3.84 3.65 3.56 3.50 3.29 3.09 2.90 2.77 2.70 2.81 3.07 2.91 3.08 3.05 2.91 2.92 3.06 3.26 3.08 2.85 2.92
0.06 0.10 0.14 0.17 0.15 0.17 0.31 0.52 0.64 0.99 1.30 1.33 1.50 1.64 1.81 2.24 2.62 2.94 3.12 3.20 3.59 4.17 4.57 4.68 4.46 4.33 4.15 3.89 3.78 3.76 3.95 3.64 3.31 3.11 2.91 2.67 2.65 2.76 2.71 2.89 2.77 2.82 2.97 2.94 2.96 3.17 2.99 2.60 2.71
0.05 0.07 0.11 0.17 0.16 0.23 0.34 0.65 0.87 1.12 1.26 1.27 1.35 1.49 1.60 1.92 2.25 2.56 2.67 2.84 3.05 3.13 3.38 3.54 3.69 3.60 3.48 3.45 3.44 3.48 3.69 3.43 3.17 2.98 2.86 2.55 2.40 2.38 2.46 2.52 2.61 2.89 2.89 2.91 2.99 2.96 2.82 2.52 2.47
0.06 0.07 0.06 0.08 0.16 0.29 0.43 0.96 1.21 1.17 1.23 1.35 1.34 1.35 1.60 1.89 1.88 1.99 2.19 2.38 2.63 2.74 2.93 2.99 3.02 3.12 3.14 3.22 3.13 2.97 2.86 2.75 2.63 2.63 2.59 2.54 2.42 2.33 2.31 2.34 2.41 2.49 2.48 2.58 2.35 2.45 2.62 2.69 2.47
0.05 0.05 0.06 0.10 0.19 0.31 0.43 0.75 1.14 1.48 1.55 1.36 1.31 1.21 1.40 1.54 1.45 1.43 1.60 1.74 1.97 2.15 2.37 2.52 2.63 2.72 2.84 2.89 2.81 2.78 2.57 2.54 2.55 2.52 2.55 2.47 2.40 2.35 2.26 2.25 2.26 2.17 2.12 2.23 2.21 2.37 2.39 2.38 2.35
0.04 0.06 0.12 0.24 0.43 0.66 0.56 0.69 1.08 1.45 1.71 1.44 1.24 1.16 1.25 1.21 1.18 1.31 1.42 1.51 1.64 1.86 2.02 2.17 2.32 2.38 2.50 2.56 2.58 2.54 2.49 2.49 2.47 2.43 2.39 2.32 2.31 2.22 2.14 2.11 2.13 2.03 2.02 2.09 2.16 2.24 2.18 2.20 2.28
0.06 0.13 0.45 0.82 1.11 1.13 0.72 0.78 1.13 1.14 1.17 1.18 1.14 1.18 1.17 1.08 1.02 1.04 1.15 1.29 1.45 1.63 1.74 1.80 1.94 2.04 2.06 2.11 2.16 2.16 2.24 2.35 2.21 2.11 2.12 2.09 1.94 1.85 1.87 1.80 1.88 1.88 1.92 1.95 2.03 2.08 2.07 2.17 2.26
0.10 0.15 0.50 0.77 0.83 0.93 0.81 1.09 1.42 1.13 1.04 0.97 1.04 1.13 1.10 0.96 0.88 0.92 1.03 1.09 1.16 1.32 1.49 1.55 1.67 1.78 1.91 1.96 1.94 1.95 1.96 1.98 1.88 1.91 1.88 1.84 1.64 1.55 1.68 1.81 1.86 1.85 1.86 1.87 2.04 1.92 1.91 2.07 2.12
0.15 0.17 0.23 0.44 0.49 0.70 0.91 1.19 1.37 1.04 0.99 1.08 1.19 1.19 1.13 0.90 0.75 0.76 0.79 0.85 0.86 0.94 1.07 1.22 1.49 1.63 1.71 1.78 1.79 1.72 1.67 1.71 1.71 1.75 1.84 1.78 1.72 1.57 1.65 1.73 1.83 1.86 1.95 2.01 2.06 1.92 2.03 2.24 2.14
0.15 0.16 0.19 0.36 0.54 0.74 0.88 1.25 1.54 1.42 1.28 1.25 1.31 1.16 0.88 0.71 0.59 0.57 0.59 0.61 0.67 0.74 0.83 0.98 1.20 1.31 1.42 1.56 1.61 1.46 1.59 1.70 1.73 1.71 1.62 1.61 1.62 1.59 1.53 1.55 1.61 1.62 1.68 1.82 1.93 1.87 1.99 2.21 2.16
0.19 0.21 0.28 0.40 0.44 0.65 1.01 1.22 1.18 1.21 1.14 1.19 1.17 0.98 0.73 0.60 0.52 0.53 0.55 0.59 0.64 0.69 0.79 0.96 1.19 1.35 1.34 1.42 1.48 1.48 1.55 1.67 1.69 1.62 1.54 1.52 1.53 1.57 1.51 1.48 1.46 1.44 1.41 1.50 1.66 1.67 1.86 1.89 1.86
0.17 0.19 0.28 0.42 0.42 0.46 0.70 0.91 0.66 0.72 0.73 0.79 0.83 0.72 0.61 0.58 0.54 0.61 0.65 0.66 0.66 0.75 0.85 0.98 1.14 1.32 1.38 1.45 1.58 1.69 1.65 1.61 1.62 1.60 1.50 1.42 1.38 1.43 1.47 1.50 1.39 1.28 1.34 1.44 1.46 1.53 1.73 1.79 1.77